Grand Junction, CO

12:00 AM MST on November 13, 2019 (GMT -0700)
Walker

Weather History for KGJT - September, 2019

Change the Weather History Date:

Tuesday, September 10, 2019

  Actual Average Record
Temperature  
Mean Temperature 68 °F 68 °F  
Max Temperature 78 °F 83 °F 95 °F (1974)
Min Temperature 58 °F 54 °F 43 °F (1962)
Degree Days  
Heating Degree Days 0 1  
Month to date heating degree days 0 6  
Since 1 July heating degree days 0 9  
Cooling Degree Days 3 5  
Month to date cooling degree days 118 58  
Year to date cooling degree days 1239 1077  
Growing Degree Days 17 (Base 50)    
Moisture  
Dew Point 47 °F    
Average Humidity 47    
Maximum Humidity 67    
Minimum Humidity 26    
Precipitation  
Precipitation 0.18 in 0.04 in 0.53 in (1980)
Month to date precipitation 0.23 0.38  
Year to date precipitation 7.09 6.23  
Snow  
Snow 0.00 in 0.00 in 0.00 in (2018)
Month to date snowfall 0.0 0.0  
Since 1 July snowfall 0.0 0.0  
Since 1 September snowfall 0.0 0.0  
Snow Depth 0.00 in    
Sea Level Pressure  
Sea Level Pressure 29.83 in    
Wind  
Wind Speed 12 mph (East)    
Max Wind Speed 31 mph    
Max Gust Speed 43 mph    
Visibility 9 miles    
Events Rain , Thunderstorm    
T = Trace of Precipitation, MM = Missing Value Source: NWS Daily Summary

Daily Weather History Graph

Daily Weather History Graph

Search for Another Location

Airport or City:

Astronomy

Sep. 10, 2019 Rise Set
Actual Time 6:50 AM MDT 7:30 PM MDT
Civil Twilight 6:23 AM MDT 7:57 PM MDT
Nautical Twilight 5:51 AM MDT 8:29 PM MDT
Astronomical Twilight 5:19 AM MDT 9:02 PM MDT
Moon 6:07 PM MDT (9/10) 3:21 AM MDT (9/10)
Length of Visible Light 13h 33m
Length of Day
12h 39m
Waxing Gibbous, 90% of the Moon is Illuminated
Sep 10
Waxing Gibbous
Sep 13
Full
Sep 21
Last Quarter
Sep 28
New
Oct 5
First Quarter

Hourly Weather History & Observations

Time (MDT) Temp. Dew Point Humidity Pressure Visibility Wind Dir Wind Speed Gust Speed Precip Events Conditions
12:53 AM 64.0 °F 30.9 °F 29% 29.72 in 10.0 mi East 13.8 mph - N/A   Clear
1:53 AM 66.0 °F 30.0 °F 26% 29.72 in 10.0 mi East 13.8 mph - N/A   Scattered Clouds
2:53 AM 63.0 °F 32.0 °F 31% 29.71 in 10.0 mi ESE 12.7 mph - N/A   Mostly Cloudy
3:53 AM 62.1 °F 32.0 °F 32% 29.70 in 10.0 mi ESE 16.1 mph - N/A   Clear
4:53 AM 62.1 °F 32.0 °F 32% 29.72 in 10.0 mi SE 13.8 mph - N/A   Partly Cloudy
5:53 AM 61.0 °F 32.0 °F 34% 29.73 in 10.0 mi ESE 15.0 mph - N/A   Clear
6:53 AM 62.1 °F 32.0 °F 32% 29.75 in 10.0 mi ESE 11.5 mph - N/A   Scattered Clouds
7:53 AM 66.0 °F 33.1 °F 29% 29.77 in 10.0 mi ESE 12.7 mph - N/A   Clear
8:53 AM 71.1 °F 37.0 °F 29% 29.79 in 10.0 mi ESE 16.1 mph - N/A   Clear
9:53 AM 77.0 °F 43.0 °F 30% 29.78 in 10.0 mi SSE 19.6 mph 26.5 mph N/A   Clear
10:53 AM 77.0 °F 43.0 °F 30% 29.77 in 10.0 mi SSE 17.3 mph - N/A   Partly Cloudy
11:53 AM 69.1 °F 41.0 °F 36% 29.82 in 10.0 mi WNW 20.7 mph 34.5 mph N/A Thunderstorm Mostly Cloudy
12:07 PM 64.0 °F 46.9 °F 54% 30.01 in 10.0 mi West 28.8 mph 42.6 mph 0.00 in Rain , Thunderstorm Light Thunderstorms and Rain
12:21 PM 59.0 °F 51.1 °F 75% 29.99 in 2.5 mi NW 19.6 mph 31.1 mph 0.03 in Rain Heavy Rain
12:29 PM 60.1 °F 53.1 °F 78% 30.00 in 7.0 mi NNW 11.5 mph - 0.07 in Rain Light Rain
12:36 PM 64.0 °F 54.0 °F 70% 30.00 in 10.0 mi NNE 15.0 mph - 0.07 in   Mostly Cloudy
12:46 PM 64.9 °F 54.0 °F 68% 30.00 in 10.0 mi NNE 17.3 mph 23.0 mph 0.07 in   Scattered Clouds
12:53 PM 66.0 °F 53.1 °F 63% 29.83 in 10.0 mi North 9.2 mph 23.0 mph 0.07 in   Partly Cloudy
1:53 PM 70.0 °F 51.1 °F 51% 29.79 in 10.0 mi South 5.8 mph - N/A   Mostly Cloudy
2:34 PM 66.2 °F 53.6 °F 64% 29.99 in 10.0 mi West 13.8 mph - N/A Thunderstorm Thunderstorm
2:46 PM 66.9 °F 54.0 °F 63% 29.97 in 10.0 mi NNW 15.0 mph - N/A Rain , Thunderstorm Light Rain
2:53 PM 71.1 °F 53.1 °F 53% 29.78 in 10.0 mi NNW 15.0 mph - N/A Rain Light Rain
3:00 PM 69.1 °F 53.1 °F 57% 29.96 in 10.0 mi North 15.0 mph - 0.00 in   Mostly Cloudy
3:08 PM 70.0 °F 53.1 °F 55% 29.96 in 10.0 mi North 11.5 mph - 0.00 in Thunderstorm Mostly Cloudy
3:23 PM 72.0 °F 52.0 °F 49% 29.94 in 10.0 mi NNE 10.4 mph - 0.00 in   Partly Cloudy
3:53 PM 75.9 °F 48.9 °F 38% 29.75 in 10.0 mi East 6.9 mph - 0.00 in   Clear
4:53 PM 73.9 °F 48.0 °F 40% 29.74 in 10.0 mi SE 4.6 mph - N/A   Mostly Cloudy
5:53 PM 75.9 °F 48.9 °F 38% 29.71 in 10.0 mi NNE 4.6 mph - N/A   Mostly Cloudy
6:08 PM 75.9 °F 48.9 °F 38% 29.89 in 10.0 mi East 8.1 mph - N/A Thunderstorm Mostly Cloudy
6:26 PM 70.0 °F 54.0 °F 57% 29.90 in 3.0 mi SE 8.1 mph 25.3 mph 0.01 in Rain Heavy Rain
6:28 PM 68.0 °F 55.0 °F 63% 29.90 in 2.5 mi SSE 8.1 mph 25.3 mph 0.08 in Rain , Thunderstorm Heavy Rain
6:40 PM 66.9 °F 55.9 °F 68% 29.91 in 10.0 mi SSE 4.6 mph - 0.10 in Rain , Thunderstorm Light Rain
6:53 PM 68.0 °F 57.9 °F 70% 29.76 in 10.0 mi Calm Calm - 0.10 in Rain Light Rain
7:53 PM 64.9 °F 59.0 °F 81% 29.73 in 10.0 mi East 6.9 mph - 0.00 in   Mostly Cloudy
8:08 PM 68.0 °F 55.9 °F 65% 29.92 in 5.0 mi Calm Calm - 0.00 in Rain , Thunderstorm Light Thunderstorms and Rain
8:34 PM 66.0 °F 55.9 °F 70% 29.90 in 10.0 mi East 12.7 mph - 0.00 in Thunderstorm Mostly Cloudy
8:44 PM 66.0 °F 55.0 °F 68% 29.91 in 10.0 mi SE 9.2 mph - 0.00 in Rain Light Rain
8:53 PM 68.0 °F 55.0 °F 63% 29.73 in 10.0 mi SSE 9.2 mph - 0.01 in Rain Light Rain
9:53 PM 63.0 °F 57.0 °F 81% 29.74 in 10.0 mi SE 8.1 mph - 0.00 in   Partly Cloudy
10:53 PM 64.0 °F 53.1 °F 67% 29.73 in 10.0 mi ESE 13.8 mph - N/A   Scattered Clouds
11:11 PM 64.0 °F 53.1 °F 67% 29.92 in 10.0 mi ESE 23.0 mph 33.4 mph 0.00 in Rain , Thunderstorm Light Rain
11:53 PM 68.0 °F 51.1 °F 55% 29.76 in 10.0 mi SSW 8.1 mph - 0.00 in Thunderstorm Mostly Cloudy